TimeEST,TemperatureF,Dew PointF,Humidity,Sea Level PressureIn,VisibilityMPH,Wind Direction,Wind SpeedMPH,Gust SpeedMPH,PrecipitationIn,Events,Conditions,WindDirDegrees,DateUTC
12:03 AM,24.8,21.2,86,29.77,1.5,NNW,5.8,-,0.00,Snow,Light Snow,340,2013-01-22 05:03:00
12:10 AM,24.8,21.2,86,29.77,1.2,North,4.6,-,0.00,Snow,Light Snow,350,2013-01-22 05:10:00
12:21 AM,24.8,21.2,86,29.77,0.8,NNW,3.5,-,0.01,Snow,Light Snow,330,2013-01-22 05:21:00
12:36 AM,24.8,21.2,86,29.77,0.8,NNW,3.5,-,0.02,Snow,Light Snow,340,2013-01-22 05:36:00
12:53 AM,25.0,21.9,88,29.76,1.0,Calm,Calm,-,0.02,Snow,Light Snow,0,2013-01-22 05:53:00
1:53 AM,25.0,21.9,88,29.77,1.0,Calm,Calm,-,0.01,Snow,Light Snow,0,2013-01-22 06:53:00
2:10 AM,24.8,21.2,86,29.76,3.0,Calm,Calm,-,0.00,Snow,Light Snow,0,2013-01-22 07:10:00
2:53 AM,24.1,21.0,88,29.75,9.0,Calm,Calm,-,0.00,,Overcast,0,2013-01-22 07:53:00
3:35 AM,23.0,21.2,93,29.74,8.0,WNW,3.5,-,N/A,,Mostly Cloudy,290,2013-01-22 08:35:00
3:45 AM,21.2,19.4,93,29.74,9.0,West,5.8,-,N/A,,Mostly Cloudy,280,2013-01-22 08:45:00
3:53 AM,23.0,19.9,88,29.75,10.0,WNW,5.8,-,N/A,,Overcast,290,2013-01-22 08:53:00
4:19 AM,24.8,21.2,86,29.75,1.8,Variable,5.8,-,0.00,Snow,Light Snow,0,2013-01-22 09:19:00
4:23 AM,24.8,21.2,86,29.74,2.0,NW,5.8,-,0.00,Snow,Light Snow,310,2013-01-22 09:23:00
4:33 AM,24.8,21.2,86,29.75,5.0,WNW,6.9,-,0.00,,Overcast,290,2013-01-22 09:33:00
4:53 AM,24.1,19.0,81,29.75,10.0,WNW,5.8,-,0.00,,Overcast,290,2013-01-22 09:53:00
5:53 AM,21.0,18.0,88,29.77,10.0,West,6.9,-,N/A,,Partly Cloudy,280,2013-01-22 10:53:00
6:53 AM,21.9,17.1,82,29.80,9.0,WNW,12.7,24.2,0.00,,Overcast,290,2013-01-22 11:53:00
7:53 AM,21.9,15.1,75,29.82,10.0,West,18.4,23.0,N/A,,Mostly Cloudy,280,2013-01-22 12:53:00
8:53 AM,21.0,10.0,63,29.85,7.0,WNW,13.8,25.3,N/A,,Clear,300,2013-01-22 13:53:00
9:53 AM,21.9,8.1,55,29.87,10.0,WNW,18.4,25.3,0.00,,Clear,300,2013-01-22 14:53:00
10:53 AM,23.0,3.9,44,29.87,10.0,WNW,15.0,27.6,N/A,,Clear,300,2013-01-22 15:53:00
11:53 AM,24.1,-0.0,35,29.86,10.0,WNW,19.6,29.9,N/A,,Clear,290,2013-01-22 16:53:00
12:53 PM,24.1,-0.9,34,29.87,10.0,WNW,19.6,27.6,N/A,,Clear,290,2013-01-22 17:53:00
1:53 PM,24.1,-0.9,34,29.87,10.0,West,17.3,26.5,N/A,,Clear,270,2013-01-22 18:53:00
2:53 PM,24.1,-0.0,35,29.89,10.0,WNW,11.5,19.6,N/A,,Scattered Clouds,290,2013-01-22 19:53:00
3:53 PM,21.9,-2.0,35,29.91,10.0,West,15.0,-,N/A,,Clear,280,2013-01-22 20:53:00
4:53 PM,21.0,-2.9,35,29.94,10.0,West,11.5,17.3,N/A,,Partly Cloudy,280,2013-01-22 21:53:00
5:53 PM,19.9,-2.9,37,29.98,10.0,WNW,10.4,-,N/A,,Clear,290,2013-01-22 22:53:00
6:53 PM,19.0,-2.0,40,30.02,10.0,WNW,8.1,-,N/A,,Clear,300,2013-01-22 23:53:00
7:53 PM,17.1,-2.9,41,30.04,10.0,WNW,9.2,-,N/A,,Clear,290,2013-01-23 00:53:00
8:53 PM,16.0,-2.9,43,30.05,10.0,WNW,8.1,-,N/A,,Clear,300,2013-01-23 01:53:00
9:53 PM,15.1,-2.9,45,30.07,10.0,West,8.1,-,N/A,,Clear,280,2013-01-23 02:53:00
10:53 PM,15.1,-0.9,49,30.08,10.0,WNW,11.5,-,N/A,,Clear,290,2013-01-23 03:53:00
11:53 PM,14.0,-0.9,52,30.08,10.0,WNW,8.1,-,N/A,,Clear,290,2013-01-23 04:53:00